Rolla, ND

1:11 PM CST on December 15, 2017 (GMT -0600)
Rolla

Weather History for K06D - October, 2013

Change the Weather History Date:

Wednesday, October 30, 2013

  Actual Average (KRUG) Record (KRUG)
Temperature  
Mean Temperature 32 °F -  
Max Temperature 41 °F 47 °F 80 °F (1950)
Min Temperature 23 °F 27 °F -6 °F (1991)
Degree Days  
Heating Degree Days 33    
Moisture  
Dew Point 28 °F    
Average Humidity 92    
Maximum Humidity 100    
Minimum Humidity 70    
Precipitation  
Precipitation 0.00 in - - ()
Sea Level Pressure  
Sea Level Pressure 29.81 in    
Wind  
Wind Speed 10 mph (SW)    
Max Wind Speed 16 mph    
Max Gust Speed 21 mph    
Visibility 10 miles    
Events      
Averages and records for this station are not official NWS values.
T = Trace of Precipitation, MM = Missing Value Source: NWS Daily Summary

Daily Weather History Graph

Daily Weather History Graph

Search for Another Location

Airport or City:

Trip Planner

Search our weather history database for the weather conditions in past years. The results will help you decide how hot, cold, wet, or windy it might be!

Date:

Astronomy

Oct. 30, 2013 Rise Set
Actual Time 8:22 AM CDT 6:20 PM CDT
Civil Twilight 7:49 AM CDT 6:53 PM CDT
Nautical Twilight 7:12 AM CDT 7:30 PM CDT
Astronomical Twilight 6:35 AM CDT 8:07 PM CDT
Moon 3:53 AM CDT (10/30) 4:24 PM CDT (10/30)
Length of Visible Light 11h 03m
Length of Day
9h 58m
Waning Crescent, 17% of the Moon is Illuminated
Oct 30
Waning Crescent
Nov 3
New
Nov 9
First Quarter
Nov 17
Full
Nov 25
Last Quarter

Hourly Weather History & Observations

Time (CDT) Temp. Windchill Dew Point Humidity Pressure Visibility Wind Dir Wind Speed Gust Speed Precip Events Conditions
12:15 AM 23.0 °F 13.9 °F 23.0 °F 100% 30.02 in 10.0 mi SW 8.1 mph - N/A   Clear
12:35 AM 23.0 °F 13.1 °F 21.2 °F 93% 30.01 in 10.0 mi SSW 9.2 mph - N/A   Mostly Cloudy
12:55 AM 23.0 °F 13.1 °F 21.2 °F 93% 30.01 in 10.0 mi SSW 9.2 mph - N/A   Scattered Clouds
1:15 AM 23.0 °F 13.1 °F 21.2 °F 93% 30.01 in 10.0 mi SSW 9.2 mph - N/A   Clear
1:35 AM 23.0 °F 13.1 °F 23.0 °F 100% 30.00 in 10.0 mi SSW 9.2 mph - N/A   Clear
1:55 AM 23.0 °F 13.1 °F 23.0 °F 100% 30.00 in 10.0 mi SSW 9.2 mph - N/A   Mostly Cloudy
2:15 AM 23.0 °F 15.8 °F 23.0 °F 100% 29.98 in 10.0 mi SSW 5.8 mph - N/A   Mostly Cloudy
2:35 AM 23.0 °F 15.8 °F 23.0 °F 100% 29.98 in 10.0 mi SW 5.8 mph - N/A   Mostly Cloudy
2:55 AM 24.8 °F 15.3 °F 23.0 °F 93% 29.97 in 10.0 mi SW 9.2 mph - N/A   Overcast
3:15 AM 24.8 °F 14.6 °F 24.8 °F 100% 29.96 in 10.0 mi SW 10.4 mph - N/A   Mostly Cloudy
3:35 AM 24.8 °F 16.1 °F 23.0 °F 93% 29.96 in 10.0 mi SSW 8.1 mph - N/A   Mostly Cloudy
3:55 AM 23.0 °F 14.7 °F 23.0 °F 100% 29.95 in 10.0 mi SSW 6.9 mph - N/A   Mostly Cloudy
4:15 AM 23.0 °F 14.7 °F 23.0 °F 100% 29.95 in 10.0 mi SSW 6.9 mph - N/A   Partly Cloudy
4:35 AM 23.0 °F 13.9 °F 23.0 °F 100% 29.94 in 10.0 mi SSW 8.1 mph - N/A   Clear
4:55 AM 23.0 °F 13.9 °F 23.0 °F 100% 29.93 in 10.0 mi SSW 8.1 mph - N/A   Clear
5:15 AM 24.8 °F 16.1 °F 24.8 °F 100% 29.92 in 10.0 mi SSW 8.1 mph - N/A   Clear
5:35 AM 24.8 °F 16.1 °F 24.8 °F 100% 29.92 in 10.0 mi SW 8.1 mph - N/A   Clear
5:55 AM 24.8 °F 15.3 °F 24.8 °F 100% 29.91 in 10.0 mi SSW 9.2 mph - N/A   Clear
6:15 AM 24.8 °F 16.1 °F 24.8 °F 100% 29.91 in 10.0 mi SSW 8.1 mph - N/A   Clear
6:35 AM 28.4 °F 17.0 °F 28.4 °F 100% 29.89 in 10.0 mi SW 15.0 mph 18.4 mph N/A   Mostly Cloudy
6:55 AM 28.4 °F 16.6 °F 28.4 °F 100% 29.89 in 10.0 mi SW 16.1 mph - N/A   Overcast
7:15 AM 28.4 °F 17.0 °F 28.4 °F 100% 29.89 in 10.0 mi SW 15.0 mph - N/A   Overcast
7:35 AM 30.2 °F 19.8 °F 28.4 °F 93% 29.89 in 10.0 mi SW 13.8 mph - N/A   Overcast
7:55 AM 30.2 °F 20.8 °F 28.4 °F 93% 29.89 in 10.0 mi SW 11.5 mph - N/A   Overcast
8:15 AM 28.4 °F 19.1 °F 28.4 °F 100% 29.89 in 10.0 mi SW 10.4 mph - N/A   Overcast
8:35 AM 30.2 °F 20.8 °F 30.2 °F 100% 29.88 in 10.0 mi SW 11.5 mph - N/A   Scattered Clouds
8:55 AM 30.2 °F 20.8 °F 30.2 °F 100% 29.89 in 10.0 mi SW 11.5 mph - N/A   Clear
9:15 AM 32.0 °F 22.5 °F 30.2 °F 93% 29.88 in 10.0 mi SW 12.7 mph - N/A   Clear
9:35 AM 32.0 °F 24.8 °F 30.2 °F 93% 29.88 in 10.0 mi SW 8.1 mph - N/A   Clear
9:55 AM 32.0 °F 25.6 °F 32.0 °F 100% 29.86 in 10.0 mi SW 6.9 mph - N/A   Clear
10:15 AM 33.8 °F 26.4 °F 32.0 °F 93% 29.86 in 10.0 mi SSW 9.2 mph - N/A   Clear
10:35 AM 33.8 °F 25.8 °F 32.0 °F 93% 29.86 in 10.0 mi SW 10.4 mph - N/A   Clear
10:55 AM 35.6 °F 27.5 °F 32.0 °F 87% 29.85 in 10.0 mi SW 11.5 mph 16.1 mph N/A   Clear
11:15 AM 37.4 °F 29.8 °F 32.0 °F 81% 29.85 in 10.0 mi SSW 11.5 mph - N/A   Clear
11:35 AM 37.4 °F 29.8 °F 32.0 °F 81% 29.83 in 10.0 mi SW 11.5 mph - N/A   Clear
12:15 PM 41.0 °F 34.3 °F 32.0 °F 70% 29.81 in 10.0 mi SW 11.5 mph - N/A   Clear
12:35 PM 41.0 °F 33.1 °F 32.0 °F 70% 29.80 in 10.0 mi South 15.0 mph - N/A   Clear
12:55 PM 39.2 °F 30.8 °F 30.2 °F 70% 29.79 in 10.0 mi SW 15.0 mph - N/A   Mostly Cloudy
1:15 PM 39.2 °F 30.5 °F 30.2 °F 70% 29.78 in 10.0 mi SSW 16.1 mph 19.6 mph N/A   Overcast
1:35 PM 39.2 °F 30.5 °F 30.2 °F 70% 29.77 in 10.0 mi SSW 16.1 mph - N/A   Overcast
1:55 PM 39.2 °F 31.6 °F 32.0 °F 75% 29.75 in 10.0 mi SSW 12.7 mph 19.6 mph N/A   Overcast
2:15 PM 39.2 °F 30.8 °F 32.0 °F 75% 29.74 in 10.0 mi SW 15.0 mph - N/A   Mostly Cloudy
2:35 PM 39.2 °F 30.8 °F 32.0 °F 75% 29.73 in 10.0 mi SW 15.0 mph - N/A   Partly Cloudy
2:55 PM 41.0 °F 33.1 °F 32.0 °F 70% 29.71 in 10.0 mi SW 15.0 mph 20.7 mph N/A   Clear
3:15 PM 41.0 °F 33.5 °F 32.0 °F 70% 29.71 in 10.0 mi SW 13.8 mph - N/A   Clear
3:35 PM 39.2 °F 31.2 °F 32.0 °F 75% 29.70 in 10.0 mi SW 13.8 mph - N/A   Clear
3:55 PM 39.2 °F 32.0 °F 32.0 °F 75% 29.70 in 10.0 mi SW 11.5 mph - N/A   Clear
4:15 PM 39.2 °F 31.6 °F 32.0 °F 75% 29.69 in 10.0 mi SW 12.7 mph - N/A   Clear
4:35 PM 39.2 °F 33.0 °F 32.0 °F 75% 29.69 in 10.0 mi SW 9.2 mph - N/A   Clear
4:55 PM 37.4 °F 29.8 °F 32.0 °F 81% 29.69 in 10.0 mi SSW 11.5 mph - N/A   Clear
5:15 PM 35.6 °F 29.2 °F 32.0 °F 87% 29.68 in 10.0 mi SSW 8.1 mph - N/A   Clear
6:55 PM 30.2 °F 24.3 °F 30.2 °F 100% 29.68 in 10.0 mi SW 5.8 mph - N/A   Partly Cloudy
7:15 PM 30.2 °F 23.4 °F 30.2 °F 100% 29.67 in 10.0 mi SW 6.9 mph - N/A   Partly Cloudy
7:35 PM 30.2 °F 23.4 °F 30.2 °F 100% 29.67 in 10.0 mi SW 6.9 mph - N/A   Mostly Cloudy
7:55 PM 30.2 °F 23.4 °F 30.2 °F 100% 29.66 in 10.0 mi SSW 6.9 mph - N/A   Mostly Cloudy
8:15 PM 28.4 °F 20.4 °F 28.4 °F 100% 29.65 in 10.0 mi SW 8.1 mph - N/A   Scattered Clouds
8:35 PM 28.4 °F 21.2 °F 28.4 °F 100% 29.64 in 10.0 mi SW 6.9 mph - N/A   Clear
8:55 PM 30.2 °F 22.6 °F 30.2 °F 100% 29.64 in 10.0 mi SW 8.1 mph - N/A   Clear
9:15 PM 30.2 °F 22.6 °F 30.2 °F 100% 29.64 in 10.0 mi SW 8.1 mph - N/A   Clear
9:35 PM 28.4 °F 21.2 °F 28.4 °F 100% 29.64 in 10.0 mi SW 6.9 mph - N/A   Clear
9:55 PM 30.2 °F 21.9 °F 30.2 °F 100% 29.63 in 10.0 mi SW 9.2 mph - N/A   Clear
10:15 PM 30.2 °F 22.6 °F 30.2 °F 100% 29.62 in 10.0 mi SW 8.1 mph - N/A   Clear
10:35 PM 28.4 °F 19.7 °F 28.4 °F 100% 29.62 in 10.0 mi SW 9.2 mph - N/A   Clear
10:55 PM 30.2 °F 21.9 °F 30.2 °F 100% 29.61 in 10.0 mi SW 9.2 mph - N/A   Clear
11:15 PM 28.4 °F 18.5 °F 28.4 °F 100% 29.60 in 10.0 mi SW 11.5 mph - N/A   Clear
11:35 PM 28.4 °F 18.0 °F 28.4 °F 100% 29.59 in 10.0 mi SW 12.7 mph - N/A   Clear
11:55 PM 28.4 °F 18.5 °F 28.4 °F 100% 29.58 in 10.0 mi SW 11.5 mph - N/A   Clear